(°C)
11°
11°
11°
12°
14°
17°
19°
(°C)
12°
14°
17°
ΒΑ
ΒΑ
ΒΑ
ΒΑ
ΒΑ
ΒΑ
ΒΑ
(χλμ / ω)
19-20
15-20
12-15
12-14
10-14
11-16
11-17
(χιλιοστά)
0
0
0
0
0
0
0
(%)
0
0
0
0
0
0
0

Sun elevation

/ -19.9°
sun-icon
UV 9
06:26
20:39
Φθίνων αμφίκυρτος (φάση σελήνης) (335°)
05:34
18:28

METAR for Ιωάννινα (LGIO)

Χρόνος Conditions Θερμοκρασία/
Σημείο δρόσου
Άνεμος Ορατότητα Καιρός Νέφη Πίεση Change Raw
12°C / 9°C variable 1kt - 1017 - LGIO 090050Z AUTO VRB01KT //// // ////// 12/09 Q1017 RE//
12°C / 9°C variable 1kt - 1017 - LGIO 090020Z AUTO VRB01KT //// // ////// 12/09 Q1017 RE//
14°C / 9°C variable 1kt - 1017 - LGIO 082350Z AUTO VRB01KT //// // ////// 14/09 Q1017 RE//
13°C / 9°C variable 1kt - 1017 - LGIO 082320Z AUTO VRB01KT //// // ////// 13/09 Q1017 RE//
13°C / 10°C variable 1kt - 1017 - LGIO 082250Z AUTO VRB01KT //// // ////// 13/10 Q1017 RE//
14°C / 10°C variable 0kt - 1016 - LGIO 082220Z AUTO 00000KT //// // ////// 14/10 Q1016 RE//
16°C / 10°C variable 1kt - 1016 - LGIO 082150Z AUTO VRB01KT //// // ////// 16/10 Q1016 RE//
15°C / 10°C variable 1kt - 1016 - LGIO 082120Z AUTO VRB01KT //// // ////// 15/10 Q1016 RE//
14°C / 10°C variable 3kt - 1016 - LGIO 082050Z AUTO VRB03KT //// // ////// 14/10 Q1016 RE//
15°C / 10°C variable 2kt - 1015 - LGIO 082020Z AUTO VRB02KT //// // ////// 15/10 Q1015 RE//
17°C / 10°C variable 3kt - 1015 - LGIO 081950Z AUTO VRB03KT //// // ////// 17/10 Q1015 RE//
18°C / 10°C variable 3kt - 1015 - LGIO 081920Z AUTO VRB03KT //// // ////// 18/10 Q1015 RE//
20°C / 10°C variable 2kt - 1015 - LGIO 081850Z AUTO VRB02KT //// // ////// 20/10 Q1015 RE//
21°C / 10°C 270º variable 240º to 300º 5kt - 1014 - LGIO 081820Z AUTO 27005KT 240V300 //// // ////// 21/10 Q1014 RE//
22°C / 10°C 270º variable 230º to 300º 5kt - 1013 - LGIO 081750Z AUTO 27005KT 230V300 //// // ////// 22/10 Q1013 RE//
23°C / 9°C 290º variable 270º to 330º 7kt - 1013 - LGIO 081720Z AUTO 29007KT 270V330 //// // ////// 23/09 Q1013 RE//
24°C / 9°C 280º variable 250º to 320º 5kt - 1013 - LGIO 081650Z AUTO 28005KT 250V320 //// // ////// 24/09 Q1013 RE//
25°C / 8°C 290º variable 250º to 320º 5kt - 1012 - LGIO 081620Z AUTO 29005KT 250V320 //// // ////// 25/08 Q1012 RE//
26°C / 9°C 280º variable 240º to 320º 7kt - 1012 - LGIO 081550Z AUTO 28007KT 240V320 //// // ////// 26/09 Q1012 RE//
27°C / 9°C 320º variable 260º to 330º 9kt - 1012 - LGIO 081520Z AUTO 32009KT 260V330 //// // ////// 27/09 Q1012 RE//
27°C / 9°C 320º 10kt - 1012 - LGIO 081450Z AUTO 32010KT //// // ////// 27/09 Q1012 RE//
28°C / 8°C 300º 11kt - 1012 - LGIO 081420Z AUTO 30011KT //// // ////// 28/08 Q1012 RE//
28°C / 7°C 320º variable 240º to 340º 9kt - 1012 - LGIO 081350Z AUTO 32009KT 240V340 //// // ////// 28/07 Q1012 RE//
28°C / 8°C 240º variable 220º to 320º 6kt - 1012 - LGIO 081320Z AUTO 24006KT 220V320 //// // ////// 28/08 Q1012 RE//

12°C / 9°C

[Περισσότερο]
Άνεμος variable 1kt
Ορατότητα
Καιρός -
Νέφη
Πίεση 1017
Change -
Raw LGIO 090050Z AUTO VRB01KT //// // ////// 12/09 Q1017 RE//

12°C / 9°C

[Περισσότερο]
Άνεμος variable 1kt
Ορατότητα
Καιρός -
Νέφη
Πίεση 1017
Change -
Raw LGIO 090020Z AUTO VRB01KT //// // ////// 12/09 Q1017 RE//

14°C / 9°C

[Περισσότερο]
Άνεμος variable 1kt
Ορατότητα
Καιρός -
Νέφη
Πίεση 1017
Change -
Raw LGIO 082350Z AUTO VRB01KT //// // ////// 14/09 Q1017 RE//

13°C / 9°C

[Περισσότερο]
Άνεμος variable 1kt
Ορατότητα
Καιρός -
Νέφη
Πίεση 1017
Change -
Raw LGIO 082320Z AUTO VRB01KT //// // ////// 13/09 Q1017 RE//

13°C / 10°C

[Περισσότερο]
Άνεμος variable 1kt
Ορατότητα
Καιρός -
Νέφη
Πίεση 1017
Change -
Raw LGIO 082250Z AUTO VRB01KT //// // ////// 13/10 Q1017 RE//

14°C / 10°C

[Περισσότερο]
Άνεμος variable 0kt
Ορατότητα
Καιρός -
Νέφη
Πίεση 1016
Change -
Raw LGIO 082220Z AUTO 00000KT //// // ////// 14/10 Q1016 RE//

16°C / 10°C

[Περισσότερο]
Άνεμος variable 1kt
Ορατότητα
Καιρός -
Νέφη
Πίεση 1016
Change -
Raw LGIO 082150Z AUTO VRB01KT //// // ////// 16/10 Q1016 RE//

15°C / 10°C

[Περισσότερο]
Άνεμος variable 1kt
Ορατότητα
Καιρός -
Νέφη
Πίεση 1016
Change -
Raw LGIO 082120Z AUTO VRB01KT //// // ////// 15/10 Q1016 RE//

14°C / 10°C

[Περισσότερο]
Άνεμος variable 3kt
Ορατότητα
Καιρός -
Νέφη
Πίεση 1016
Change -
Raw LGIO 082050Z AUTO VRB03KT //// // ////// 14/10 Q1016 RE//

15°C / 10°C

[Περισσότερο]
Άνεμος variable 2kt
Ορατότητα
Καιρός -
Νέφη
Πίεση 1015
Change -
Raw LGIO 082020Z AUTO VRB02KT //// // ////// 15/10 Q1015 RE//

17°C / 10°C

[Περισσότερο]
Άνεμος variable 3kt
Ορατότητα
Καιρός -
Νέφη
Πίεση 1015
Change -
Raw LGIO 081950Z AUTO VRB03KT //// // ////// 17/10 Q1015 RE//

18°C / 10°C

[Περισσότερο]
Άνεμος variable 3kt
Ορατότητα
Καιρός -
Νέφη
Πίεση 1015
Change -
Raw LGIO 081920Z AUTO VRB03KT //// // ////// 18/10 Q1015 RE//

20°C / 10°C

[Περισσότερο]
Άνεμος variable 2kt
Ορατότητα
Καιρός -
Νέφη
Πίεση 1015
Change -
Raw LGIO 081850Z AUTO VRB02KT //// // ////// 20/10 Q1015 RE//

21°C / 10°C

[Περισσότερο]
Άνεμος 270º variable 240º to 300º 5kt
Ορατότητα
Καιρός -
Νέφη
Πίεση 1014
Change -
Raw LGIO 081820Z AUTO 27005KT 240V300 //// // ////// 21/10 Q1014 RE//

22°C / 10°C

[Περισσότερο]
Άνεμος 270º variable 230º to 300º 5kt
Ορατότητα
Καιρός -
Νέφη
Πίεση 1013
Change -
Raw LGIO 081750Z AUTO 27005KT 230V300 //// // ////// 22/10 Q1013 RE//

23°C / 9°C

[Περισσότερο]
Άνεμος 290º variable 270º to 330º 7kt
Ορατότητα
Καιρός -
Νέφη
Πίεση 1013
Change -
Raw LGIO 081720Z AUTO 29007KT 270V330 //// // ////// 23/09 Q1013 RE//

24°C / 9°C

[Περισσότερο]
Άνεμος 280º variable 250º to 320º 5kt
Ορατότητα
Καιρός -
Νέφη
Πίεση 1013
Change -
Raw LGIO 081650Z AUTO 28005KT 250V320 //// // ////// 24/09 Q1013 RE//

25°C / 8°C

[Περισσότερο]
Άνεμος 290º variable 250º to 320º 5kt
Ορατότητα
Καιρός -
Νέφη
Πίεση 1012
Change -
Raw LGIO 081620Z AUTO 29005KT 250V320 //// // ////// 25/08 Q1012 RE//

26°C / 9°C

[Περισσότερο]
Άνεμος 280º variable 240º to 320º 7kt
Ορατότητα
Καιρός -
Νέφη
Πίεση 1012
Change -
Raw LGIO 081550Z AUTO 28007KT 240V320 //// // ////// 26/09 Q1012 RE//

27°C / 9°C

[Περισσότερο]
Άνεμος 320º variable 260º to 330º 9kt
Ορατότητα
Καιρός -
Νέφη
Πίεση 1012
Change -
Raw LGIO 081520Z AUTO 32009KT 260V330 //// // ////// 27/09 Q1012 RE//

27°C / 9°C

[Περισσότερο]
Άνεμος 320º 10kt
Ορατότητα
Καιρός -
Νέφη
Πίεση 1012
Change -
Raw LGIO 081450Z AUTO 32010KT //// // ////// 27/09 Q1012 RE//

28°C / 8°C

[Περισσότερο]
Άνεμος 300º 11kt
Ορατότητα
Καιρός -
Νέφη
Πίεση 1012
Change -
Raw LGIO 081420Z AUTO 30011KT //// // ////// 28/08 Q1012 RE//

28°C / 7°C

[Περισσότερο]
Άνεμος 320º variable 240º to 340º 9kt
Ορατότητα
Καιρός -
Νέφη
Πίεση 1012
Change -
Raw LGIO 081350Z AUTO 32009KT 240V340 //// // ////// 28/07 Q1012 RE//

28°C / 8°C

[Περισσότερο]
Άνεμος 240º variable 220º to 320º 6kt
Ορατότητα
Καιρός -
Νέφη
Πίεση 1012
Change -
Raw LGIO 081320Z AUTO 24006KT 220V320 //// // ////// 28/08 Q1012 RE//

TAF for Ιωάννινα (LGIO)

From till


From till Wind 40º 10kt. Visibility 10km or more. Few Clouds 2500ft.

Raw: TAF LGIO 082300Z 0900/0909 04010KT 9999 FEW025

Current satellite and rain images for Ιωάννινα, Ελληνική Δημοκρατία

  • Υετός:
  • <1 χιλιοστά
  • 1-2 χιλιοστά
  • 2-5 χιλιοστά
  • >5 χιλιοστά

Η ένδειξη τοποθεσίας τοποθετείται στο Ιωάννινα. [Περισσότερο]

The real-time satellite image combines visible light during daytime with infrared radiation during nighttime. At night, the image is not dark as infrared radiation can detect temperature differences. Unfortunately, low clouds and fog are difficult to distinguish from ground temperatures and thus can be almost invisible during the night. Meteosat satellite images for Europe are updated in real-time every 5 minutes. GOES-16/GOES-17 (North & South America) and Himawari (Asia) images update every 10 minutes.

Ο υετός υπολογίζεται από ραντάρ και δορυφόρους. Η εκτιμήση του υετού από δορυφόρους τη νύχτα είναι λιγότερο ακριβής από ό,τι την ημέρα. Με πορτοκαλί σταυροούς οι θέσεις όπου αστραπές εντοπίζονται (για Ευρώπη).

Πνευματική ιδιοκτησία 2021 EUMETSAT / meteoblue. Δεδομένα αστραπών παρεχόμενα από nowcast.

Τρέχουσα κατάσταση καιρού και προειδοποιήσεις

EUMETNET – MeteoAlarm

pictomap

Πηγή: HNMS

Μπορεί να υπάρχουν χρονικές καθυστερήσεις μεταξύ αυτής της ιστοσελίδας και του www.meteoalarm.eu Για πιο ενημερωμένες πληροφορίες σχετικά με τα επίπεδα συναγερμού, όπως δημοσιεύονται από τις συμμετέχουσες Εθνικές Μετεωρολογικές Υπηρεσίες, παρακαλούμε χρησιμοποιήστε το www.meteoalarm.eu.